Weather History for KCMY - November, 2013

Change the Weather History Date:

Monday, November 18, 2013

  Actual Average Record
Temperature  
Mean Temperature 24 °F -  
Max Temperature 34 °F 43 °F 70 °F (1953)
Min Temperature 15 °F 25 °F 6 °F (2008)
Degree Days  
Heating Degree Days 40    
Moisture  
Dew Point 22 °F    
Average Humidity 73    
Maximum Humidity 97    
Minimum Humidity 60    
Precipitation  
Precipitation 0.00 in - - ()
Sea Level Pressure  
Sea Level Pressure 30.04 in    
Wind  
Wind Speed 12 mph (WNW)    
Max Wind Speed 20 mph    
Max Gust Speed 30 mph    
Visibility 10 miles    
Events      
Averages and records for this station are not official NWS values.
T = Trace of Precipitation, MM = Missing Value Source: NWS Daily Summary

Daily Weather History Graph

Daily Weather History Graph

Search for Another Location

Airport or City:

Trip Planner

Search our weather history database for the weather conditions in past years. The results will help you decide how hot, cold, wet, or windy it might be!

Date:

Astronomy

Nov. 18, 2013 Rise Set
Actual Time 7:02 AM CST 4:33 PM CST
Civil Twilight 6:30 AM CST 5:05 PM CST
Nautical Twilight 5:55 AM CST 5:40 PM CST
Astronomical Twilight 5:21 AM CST 6:14 PM CST
Moon 5:35 PM CST (11/18) 7:51 AM CST (11/18)
Length of Visible Light 10h 34m
Length of Day
9h 31m
Full, 99% of the Moon is Illuminated
Nov 18
Full
Nov 25
Last Quarter
Dec 2
New
Dec 9
First Quarter
Dec 17
Full

Hourly Weather History & Observations

Time (CST) Temp. Windchill Dew Point Humidity Pressure Visibility Wind Dir Wind Speed Gust Speed Precip Events Conditions
12:15 AM 34.9 °F 26.2 °F 27.3 °F 74% 29.75 in 10.0 mi West 12.7 mph 25.3 mph N/A   Overcast
12:35 AM 34.7 °F 25.5 °F 26.6 °F 72% 29.75 in 10.0 mi West 13.8 mph 24.2 mph N/A   Overcast
12:55 AM 34.3 °F 25.5 °F 26.1 °F 72% 29.75 in 10.0 mi West 12.7 mph 20.7 mph N/A   Overcast
1:15 AM 34.2 °F 25.2 °F 25.7 °F 71% 29.76 in 10.0 mi West 12.7 mph 23.0 mph N/A   Overcast
1:35 AM 34.2 °F 24.4 °F 25.7 °F 71% 29.77 in 10.0 mi West 15.0 mph 24.2 mph N/A   Overcast
1:55 AM 34.0 °F 24.2 °F 25.5 °F 71% 29.78 in 10.0 mi West 15.0 mph 25.3 mph N/A   Overcast
2:15 AM 33.8 °F 24.3 °F 25.7 °F 72% 29.79 in 10.0 mi West 13.8 mph 25.3 mph N/A   Overcast
2:35 AM 33.8 °F 22.5 °F 25.0 °F 70% 29.80 in 10.0 mi WNW 19.6 mph 29.9 mph N/A   Overcast
2:55 AM 33.3 °F 25.1 °F 25.0 °F 72% 29.81 in 10.0 mi West 10.4 mph 21.9 mph N/A   Overcast
3:15 AM 33.3 °F 23.7 °F 24.8 °F 71% 29.81 in 10.0 mi West 13.8 mph 27.6 mph N/A   Overcast
3:35 AM 33.3 °F 22.5 °F 24.6 °F 71% 29.81 in 10.0 mi WNW 17.3 mph 24.2 mph N/A   Overcast
3:55 AM 33.1 °F 23.0 °F 25.5 °F 74% 29.82 in 10.0 mi West 15.0 mph 23.0 mph N/A   Overcast
4:15 AM 32.9 °F 21.6 °F 24.4 °F 71% 29.82 in 10.0 mi WNW 18.4 mph 26.5 mph N/A   Overcast
4:35 AM 32.5 °F 22.3 °F 24.1 °F 71% 29.84 in 10.0 mi WNW 15.0 mph 25.3 mph N/A   Overcast
4:55 AM 32.5 °F 21.9 °F 23.9 °F 70% 29.85 in 10.0 mi WNW 16.1 mph 23.0 mph N/A   Overcast
5:15 AM 32.4 °F 22.1 °F 23.7 °F 70% 29.86 in 10.0 mi West 15.0 mph 20.7 mph N/A   Overcast
5:35 AM 32.4 °F 24.0 °F 23.5 °F 70% 29.87 in 10.0 mi WNW 10.4 mph 19.6 mph N/A   Overcast
5:55 AM 32.2 °F 22.7 °F 23.5 °F 70% 29.87 in 10.0 mi West 12.7 mph 20.7 mph N/A   Overcast
6:15 AM 32.0 °F 20.5 °F 22.5 °F 68% 29.89 in 10.0 mi WNW 18.4 mph 26.5 mph N/A   Overcast
6:35 AM 32.0 °F 20.1 °F 22.1 °F 67% 29.90 in 10.0 mi WNW 19.6 mph 28.8 mph N/A   Overcast
6:55 AM 32.0 °F 20.1 °F 22.1 °F 67% 29.90 in 10.0 mi West 19.6 mph 26.5 mph N/A   Overcast
7:15 AM 32.0 °F 20.8 °F 22.1 °F 67% 29.91 in 10.0 mi WNW 17.3 mph 27.6 mph N/A   Overcast
7:35 AM 32.0 °F 23.6 °F 23.4 °F 70% 29.92 in 10.0 mi West 10.4 mph 17.3 mph N/A   Overcast
7:55 AM 31.8 °F 23.3 °F 23.4 °F 71% 29.93 in 10.0 mi West 10.4 mph 20.7 mph N/A   Overcast
8:15 AM 31.6 °F 23.1 °F 23.2 °F 71% 29.94 in 10.0 mi West 10.4 mph 20.7 mph N/A   Overcast
8:35 AM 31.6 °F 22.1 °F 23.2 °F 71% 29.95 in 10.0 mi WNW 12.7 mph 21.9 mph N/A   Overcast
8:55 AM 31.6 °F 20.7 °F 23.2 °F 71% 29.97 in 10.0 mi WNW 16.1 mph 21.9 mph N/A   Overcast
9:15 AM 31.8 °F 22.3 °F 22.8 °F 69% 29.98 in 10.0 mi West 12.7 mph 19.6 mph N/A   Overcast
9:35 AM 32.0 °F 22.5 °F 21.9 °F 66% 29.99 in 10.0 mi WNW 12.7 mph 20.7 mph N/A   Overcast
9:55 AM 32.0 °F 22.5 °F 21.9 °F 66% 30.02 in 10.0 mi WNW 12.7 mph 21.9 mph N/A   Overcast
10:15 AM 32.0 °F 20.1 °F 21.9 °F 66% 30.02 in 10.0 mi WNW 19.6 mph 24.2 mph N/A   Overcast
10:35 AM 32.0 °F 23.6 °F 21.7 °F 66% 30.04 in 10.0 mi WNW 10.4 mph 23.0 mph N/A   Overcast
10:55 AM 32.2 °F 20.7 °F 21.2 °F 64% 30.04 in 10.0 mi WNW 18.4 mph 25.3 mph N/A   Overcast
11:15 AM 32.9 °F 22.4 °F 21.6 °F 63% 30.05 in 10.0 mi WNW 16.1 mph 19.6 mph N/A   Overcast
11:35 AM 32.7 °F 21.8 °F 21.2 °F 63% 30.06 in 10.0 mi NW 17.3 mph 27.6 mph N/A   Overcast
11:55 AM 33.1 °F 21.5 °F 20.7 °F 60% 30.07 in 10.0 mi WNW 19.6 mph 26.5 mph N/A   Overcast
12:15 PM 33.1 °F 23.9 °F 21.0 °F 61% 30.07 in 10.0 mi NW 12.7 mph 25.3 mph N/A   Overcast
12:35 PM 33.1 °F 23.4 °F 21.6 °F 63% 30.08 in 10.0 mi WNW 13.8 mph 19.6 mph N/A   Overcast
12:55 PM 32.4 °F 21.3 °F 20.7 °F 62% 30.10 in 10.0 mi WNW 17.3 mph 23.0 mph N/A   Overcast
1:15 PM 32.9 °F 22.8 °F 20.8 °F 61% 30.10 in 10.0 mi NNW 15.0 mph 24.2 mph N/A   Overcast
1:35 PM 32.9 °F 24.1 °F 20.7 °F 61% 30.11 in 10.0 mi NW 11.5 mph 21.9 mph N/A   Overcast
1:55 PM 32.9 °F 24.7 °F 20.8 °F 61% 30.12 in 10.0 mi WNW 10.4 mph - N/A   Overcast
2:15 PM 32.5 °F 24.2 °F 21.0 °F 63% 30.12 in 10.0 mi NW 10.4 mph - N/A   Overcast
2:35 PM 32.9 °F 24.1 °F 21.4 °F 63% 30.13 in 10.0 mi WNW 11.5 mph - N/A   Overcast
2:55 PM 32.9 °F 24.7 °F 21.7 °F 64% 30.13 in 10.0 mi NW 10.4 mph - N/A   Overcast
3:15 PM 32.9 °F 25.3 °F 21.9 °F 64% 30.14 in 10.0 mi WNW 9.2 mph - N/A   Overcast
3:35 PM 32.0 °F 22.1 °F 20.3 °F 62% 30.15 in 10.0 mi NW 13.8 mph - N/A   Mostly Cloudy
3:55 PM 32.2 °F 25.0 °F 21.0 °F 63% 30.15 in 10.0 mi NW 8.1 mph - N/A   Mostly Cloudy
4:15 PM 32.0 °F 26.4 °F 20.8 °F 63% 30.16 in 10.0 mi NW 5.8 mph - N/A   Scattered Clouds
4:35 PM 30.9 °F 23.5 °F 20.8 °F 66% 30.17 in 10.0 mi NW 8.1 mph - N/A   Scattered Clouds
4:55 PM 30.0 °F 23.2 °F 20.8 °F 69% 30.17 in 10.0 mi NW 6.9 mph - N/A   Clear
5:15 PM 29.3 °F 22.3 °F 20.8 °F 71% 30.18 in 10.0 mi NW 6.9 mph - N/A   Clear
5:35 PM 28.8 °F 20.9 °F 20.7 °F 72% 30.19 in 10.0 mi NNW 8.1 mph - N/A   Clear
5:55 PM 28.6 °F 21.5 °F 20.7 °F 72% 30.19 in 10.0 mi NW 6.9 mph - N/A   Clear
6:15 PM 28.0 °F 21.7 °F 20.3 °F 73% 30.20 in 10.0 mi NNW 5.8 mph - N/A   Clear
6:35 PM 27.1 °F 21.8 °F 20.3 °F 75% 30.21 in 10.0 mi NNW 4.6 mph - N/A   Clear
6:55 PM 26.8 °F - 20.3 °F 77% 30.21 in 10.0 mi Calm Calm - N/A   Clear
7:15 PM 25.5 °F - 20.1 °F 80% 30.22 in 10.0 mi Calm Calm - N/A   Clear
7:35 PM 24.6 °F - 20.1 °F 83% 30.22 in 10.0 mi Calm Calm - N/A   Clear
7:55 PM 22.5 °F - 19.0 °F 87% 30.23 in 10.0 mi Calm Calm - N/A   Clear
8:15 PM 21.9 °F - 19.4 °F 90% 30.23 in 10.0 mi Calm Calm - N/A   Clear
8:35 PM 20.7 °F - 18.1 °F 90% 30.24 in 10.0 mi Calm Calm - N/A   Clear
8:55 PM 19.9 °F - 18.7 °F 95% 30.25 in 10.0 mi Calm Calm - N/A   Clear
9:15 PM 19.8 °F - 18.5 °F 95% 30.25 in 10.0 mi Calm Calm - N/A   Clear
9:35 PM 18.5 °F - 17.2 °F 95% 30.26 in 10.0 mi Calm Calm - N/A   Clear
9:55 PM 17.8 °F - 16.5 °F 95% 30.26 in 10.0 mi Calm Calm - N/A   Clear
10:15 PM 17.4 °F - 16.2 °F 95% 30.27 in 10.0 mi Calm Calm - N/A   Clear
10:35 PM 16.7 °F - 15.4 °F 95% 30.26 in 10.0 mi Calm Calm - N/A   Clear
10:55 PM 16.9 °F - 16.0 °F 96% 30.26 in 10.0 mi Calm Calm - N/A   Clear
11:15 PM 16.9 °F - 16.2 °F 97% 30.27 in 10.0 mi Calm Calm - N/A   Clear
11:35 PM 15.8 °F - 14.5 °F 95% 30.27 in 10.0 mi Calm Calm - N/A   Clear
11:55 PM 16.0 °F - 15.1 °F 96% 30.27 in 10.0 mi Calm Calm - N/A   Clear